| time (UTC) | temp C | wind direction | speed KPH | gust KPH | rain 1hr cm | rain 24hr cm | rain mn cm | humidity % | barometer mb |
| 20260903084544 | 21 | 301 | 0.0 | 4.8 | 0.00 | 0.00 | 0.00 | 37 | 1003.1 |
| 20260903083044 | 21 | 123 | 0.0 | 6.4 | 0.00 | 0.00 | 0.00 | 39 | 1003.2 |
| 20260903081543 | 21 | 161 | 1.6 | 8.0 | 0.00 | 0.00 | 0.00 | 37 | 1003.0 |
| 20260903080041 | 22 | 180 | 0.0 | 8.0 | 0.00 | 0.00 | 0.00 | 37 | 1002.9 |
| 20260903074540 | 24 | 234 | 3.2 | 8.0 | 0.00 | 0.00 | 0.00 | 30 | 1003.1 |
| 20260903073045 | 23 | 284 | 1.6 | 8.0 | 0.00 | 0.00 | 0.00 | 31 | 1003.0 |
| 20260903071537 | 23 | 305 | 6.4 | 12.9 | 0.00 | 0.00 | 0.00 | 30 | 1003.1 |
| 20260903070039 | 22 | 315 | 3.2 | 8.0 | 0.00 | 0.00 | 0.00 | 31 | 1003.2 |
| 20260903064532 | 22 | 333 | 3.2 | 9.7 | 0.00 | 0.00 | 0.00 | 31 | 1003.2 |
| 20260903063030 | 22 | 15 | 3.2 | 9.7 | 0.00 | 0.00 | 0.00 | 32 | 1003.3 |
| 20260903061537 | 22 | 30 | 1.6 | 6.4 | 0.00 | 0.00 | 0.00 | 32 | 1003.2 |
| 20260903060029 | 22 | 238 | 0.0 | 3.2 | 0.00 | 0.00 | 0.00 | 31 | 1002.9 |
| 20260903054524 | 23 | 238 | 0.0 | 3.2 | 0.00 | 0.00 | 0.00 | 28 | 1002.8 |
| 20260903053023 | 23 | 236 | 0.0 | 4.8 | 0.00 | 0.00 | 0.00 | 28 | 1002.7 |
| 20260903051523 | 23 | 196 | 0.0 | 4.8 | 0.00 | 0.00 | 0.00 | 27 | 1002.7 |
| 20260903050023 | 22 | 33 | 0.0 | 0.0 | 0.00 | 0.00 | 0.00 | 28 | 1002.6 |
| 20260903044522 | 22 | 33 | 0.0 | 0.0 | 0.00 | 0.00 | 0.00 | 28 | 1002.5 |
| 20260903043021 | 22 | 33 | 0.0 | 0.0 | 0.00 | 0.00 | 0.00 | 27 | 1002.4 |
| 20260903041526 | 22 | 35 | 0.0 | 1.6 | 0.00 | 0.00 | 0.00 | 28 | 1002.3 |
| 20260903040021 | 23 | 197 | 0.0 | 0.0 | 0.00 | 0.00 | 0.00 | 27 | 1002.3 |
| 20260903034521 | 24 | 197 | 0.0 | 1.6 | 0.00 | 0.00 | 0.00 | 26 | 1002.3 |
| 20260903033019 | 25 | 197 | 0.0 | 1.6 | 0.00 | 0.00 | 0.00 | 24 | 1002.1 |
| 20260903031523 | 25 | 187 | 1.6 | 6.4 | 0.00 | 0.00 | 0.00 | 25 | 1002.0 |
| 20260903030029 | 26 | 211 | 1.6 | 6.4 | 0.00 | 0.00 | 0.00 | 24 | 1001.7 |
| 20260903024518 | 26 | 219 | 0.0 | 4.8 | 0.00 | 0.00 | 0.00 | 26 | 1001.4 |
| 20260903023018 | 27 | 219 | 0.0 | 11.3 | 0.00 | 0.00 | 0.00 | 26 | 1001.2 |
| 20260903021517 | 28 | 238 | 1.6 | 9.7 | 0.00 | 0.00 | 0.00 | 25 | 1000.9 |
| 20260903020017 | 28 | 49 | 3.2 | 6.4 | 0.00 | 0.00 | 0.00 | 22 | 1000.8 |
| 20260903014516 | 29 | 50 | 8.0 | 11.3 | 0.00 | 0.00 | 0.00 | 21 | 1000.6 |
| 20260903013027 | 29 | 45 | 6.4 | 11.3 | 0.00 | 0.00 | 0.00 | 21 | 1000.6 |
| 20260903011516 | 30 | 41 | 6.4 | 17.7 | 0.00 | 0.00 | 0.00 | 20 | 1000.7 |
| 20260903010027 | 30 | 57 | 9.7 | 16.1 | 0.00 | 0.00 | 0.00 | 19 | 1000.8 |
| 20260903004513 | 31 | 44 | 4.8 | 14.5 | 0.00 | 0.00 | 0.00 | 19 | 1000.9 |
| 20260903003015 | 31 | 70 | 6.4 | 16.1 | 0.00 | 0.00 | 0.00 | 18 | 1000.7 |
| 20260903001513 | 32 | 58 | 8.0 | 16.1 | 0.00 | 0.00 | 0.00 | 17 | 1000.8 |
| 20260903000012 | 32 | 63 | 9.7 | 16.1 | 0.00 | 0.00 | 0.00 | 17 | 1000.8 |
| 20260902234519 | 32 | 72 | 6.4 | 24.1 | 0.00 | 0.00 | 0.00 | 17 | 1000.8 |
| 20260902233010 | 32 | 90 | 6.4 | 24.1 | 0.00 | 0.00 | 0.00 | 17 | 1000.9 |
| 20260902231508 | 32 | 20 | 9.7 | 20.9 | 0.00 | 0.00 | 0.00 | 17 | 1001.2 |
| 20260902230006 | 32 | 57 | 11.3 | 17.7 | 0.00 | 0.00 | 0.00 | 17 | 1001.4 |
| 20260902224505 | 32 | 36 | 6.4 | 22.5 | 0.00 | 0.00 | 0.00 | 17 | 1001.5 |
| 20260902223002 | 32 | 33 | 6.4 | 17.7 | 0.00 | 0.00 | 0.00 | 18 | 1001.7 |
| 20260902221501 | 32 | 70 | 1.6 | 14.5 | 0.00 | 0.00 | 0.00 | 18 | 1001.7 |
| 20260902214602 | 31 | 130 | 11.3 | 24.1 | 0.00 | 0.00 | 0.00 | 18 | 1002.1 |
| 20260902213056 | 32 | 149 | 4.8 | 11.3 | 0.00 | 0.00 | 0.00 | 18 | 1002.3 |
| 20260902211556 | 32 | 132 | 6.4 | 20.9 | 0.00 | 0.00 | 0.00 | 19 | 1002.4 |
| 20260902210052 | 31 | 138 | 1.6 | 19.3 | 0.00 | 0.00 | 0.00 | 19 | 1002.7 |
| 20260902204551 | 32 | 144 | 12.9 | 22.5 | 0.00 | 0.00 | 0.00 | 20 | 1003.1 |
| 20260902203048 | 32 | 186 | 11.3 | 20.9 | 0.00 | 0.00 | 0.00 | 20 | 1003.2 |
| 20260902201554 | 31 | 138 | 6.4 | 16.1 | 0.00 | 0.00 | 0.00 | 20 | 1003.5 |
| 20260902200044 | 31 | 145 | 11.3 | 20.9 | 0.00 | 0.00 | 0.00 | 21 | 1003.6 |
| 20260902194543 | 31 | 167 | 16.1 | 22.5 | 0.00 | 0.00 | 0.00 | 21 | 1003.8 |
| 20260902193045 | 31 | 163 | 11.3 | 20.9 | 0.00 | 0.00 | 0.00 | 21 | 1004.1 |
| 20260902191540 | 31 | 138 | 3.2 | 14.5 | 0.00 | 0.00 | 0.00 | 20 | 1004.3 |
| 20260902190038 | 31 | 198 | 11.3 | 25.7 | 0.00 | 0.00 | 0.00 | 21 | 1004.7 |
| 20260902184535 | 31 | 300 | 8.0 | 14.5 | 0.00 | 0.00 | 0.00 | 20 | 1004.8 |
| 20260902183038 | 31 | 202 | 8.0 | 14.5 | 0.00 | 0.00 | 0.00 | 21 | 1005.0 |
| 20260902181531 | 30 | 211 | 8.0 | 16.1 | 0.00 | 0.00 | 0.00 | 21 | 1005.3 |
| 20260902180029 | 30 | 109 | 6.4 | 12.9 | 0.00 | 0.00 | 0.00 | 21 | 1005.5 |
| 20260902174526 | 30 | 255 | 4.8 | 17.7 | 0.00 | 0.00 | 0.00 | 23 | 1005.9 |
| 20260902173025 | 29 | 256 | 3.2 | 19.3 | 0.00 | 0.00 | 0.00 | 24 | 1006.2 |
| 20260902171523 | 29 | 244 | 12.9 | 27.4 | 0.00 | 0.00 | 0.00 | 23 | 1006.5 |
| 20260902170022 | 29 | 194 | 11.3 | 22.5 | 0.00 | 0.00 | 0.00 | 23 | 1006.8 |
| 20260902164518 | 28 | 307 | 3.2 | 17.7 | 0.00 | 0.00 | 0.00 | 24 | 1006.9 |
| 20260902163016 | 28 | 300 | 11.3 | 24.1 | 0.00 | 0.00 | 0.00 | 24 | 1007.0 |
| 20260902161512 | 28 | 320 | 4.8 | 24.1 | 0.00 | 0.00 | 0.00 | 25 | 1007.3 |
| 20260902160013 | 27 | 293 | 8.0 | 29.0 | 0.00 | 0.00 | 0.00 | 25 | 1007.5 |
| 20260902154507 | 27 | 236 | 4.8 | 12.9 | 0.00 | 0.00 | 0.00 | 26 | 1007.6 |
| 20260902153014 | 26 | 223 | 4.8 | 22.5 | 0.00 | 0.00 | 0.00 | 27 | 1007.6 |
| 20260902151601 | 26 | 331 | 3.2 | 17.7 | 0.00 | 0.00 | 0.00 | 28 | 1007.8 |
| 20260902150057 | 25 | 285 | 3.2 | 12.9 | 0.00 | 0.00 | 0.00 | 30 | 1007.9 |
| 20260902144553 | 24 | 240 | 0.0 | 4.8 | 0.00 | 0.00 | 0.00 | 35 | 1008.1 |
| 20260902143048 | 23 | 246 | 4.8 | 11.3 | 0.00 | 0.00 | 0.00 | 36 | 1008.2 |
| 20260902141544 | 21 | 235 | 1.6 | 8.0 | 0.00 | 0.00 | 0.00 | 43 | 1008.0 |
| 20260902140041 | 20 | 232 | 0.0 | 4.8 | 0.00 | 0.00 | 0.00 | 47 | 1008.2 |
| 20260902134549 | 19 | 196 | 1.6 | 6.4 | 0.00 | 0.00 | 0.00 | 47 | 1008.1 |
| 20260902133039 | 18 | 319 | 0.0 | 3.2 | 0.00 | 0.00 | 0.00 | 49 | 1008.0 |
| 20260902131543 | 17 | 319 | 0.0 | 4.8 | 0.00 | 0.00 | 0.00 | 52 | 1007.9 |
| 20260902130040 | 16 | 272 | 0.0 | 1.6 | 0.00 | 0.00 | 0.00 | 53 | 1007.7 |
| 20260902124533 | 16 | 271 | 0.0 | 3.2 | 0.00 | 0.00 | 0.00 | 53 | 1007.5 |
| 20260902123034 | 16 | 271 | 0.0 | 3.2 | 0.00 | 0.00 | 0.00 | 53 | 1007.3 |
| 20260902121530 | 17 | 277 | 0.0 | 3.2 | 0.00 | 0.00 | 0.00 | 53 | 1007.2 |
| 20260902120028 | 17 | 230 | 0.0 | 4.8 | 0.00 | 0.00 | 0.00 | 52 | 1007.1 |
| 20260902114529 | 17 | 327 | 0.0 | 6.4 | 0.00 | 0.00 | 0.00 | 53 | 1006.9 |
| 20260902113025 | 17 | 277 | 0.0 | 3.2 | 0.00 | 0.00 | 0.00 | 53 | 1006.8 |
| 20260902111523 | 17 | 305 | 1.6 | 12.9 | 0.00 | 0.00 | 0.00 | 53 | 1006.6 |
| 20260902110036 | 16 | 302 | 0.0 | 4.8 | 0.00 | 0.00 | 0.00 | 59 | 1006.5 |
| 20260902104521 | 16 | 283 | 0.0 | 3.2 | 0.00 | 0.00 | 0.00 | 62 | 1006.5 |
| 20260902103020 | 16 | 287 | 0.0 | 3.2 | 0.00 | 0.00 | 0.00 | 63 | 1006.5 |
| 20260902101520 | 16 | 235 | 0.0 | 0.0 | 0.00 | 0.00 | 0.00 | 63 | 1006.5 |
| 20260902100018 | 16 | 235 | 0.0 | 3.2 | 0.00 | 0.00 | 0.00 | 64 | 1006.4 |
| 20260902094522 | 16 | 233 | 0.0 | 4.8 | 0.00 | 0.00 | 0.00 | 67 | 1006.5 |
| 20260902093028 | 16 | 194 | 0.0 | 1.6 | 0.00 | 0.00 | 0.00 | 73 | 1006.3 |
| 20260902091514 | 16 | 194 | 0.0 | 0.0 | 0.00 | 0.00 | 0.00 | 72 | 1006.4 |
| 20260902090011 | 16 | 194 | 0.0 | 4.8 | 0.00 | 0.00 | 0.00 | 71 | 1006.5 |